[[{"header":{"parameterUnit":"m.s-1","parameterCategory":1,"la1":30.2991,"la2":30.254,"lo1":-89.0895,"lo2":-89.0444,"dy":0.0017,"dx":0.0017,"nx":28,"ny":28,"refTime":"2025-06-13T09:00:00:Z","depth":0,"parameterNumber":2,"parameterNumberName":"U-component_of_WINDS"},"data":[0,0,0,0,0,0,0,0,0,0,0,0,0,0,0,0,0,0,0,0,0,0,0,0,0,0,0,0,0,0,0,0,0,0,0,0,0,0,0,0,0,0,0,0,0,0,0,0,0,0,0,0,0,0,0,0,0,0,3.1796,3.1797,0,3.1907,3.1908,3.1909,3.1879,3.1877,3.1875,3.1873,3.1985,3.199,3.1995,0,0,0,0,0,0,0,0,0,0,0,0,0,3.1553,3.1557,3.1795,3.1797,3.1798,3.1907,3.1908,3.191,3.188,3.1877,3.1874,3.1872,3.1983,3.1989,3.1995,0,0,0,0,0,0,0,0,0,0,0,0,0,3.1661,3.1559,3.1795,3.1796,3.1798,3.1906,3.1908,3.191,3.188,3.1877,3.1874,3.1871,3.1981,3.1988,3.1996,3.2109,0,0,3.2019,3.2022,0,0,0,0,0,0,0,0,3.1654,3.1669,3.1795,3.1797,3.1798,3.1876,3.1864,3.1977,3.1881,3.1849,3.1873,3.1869,3.1951,3.1961,3.1989,3.2115,3.2119,3.202,3.2024,3.2028,3.203,0,0,0,0,0,0,0,3.1647,3.1664,3.1839,3.1797,3.1799,3.179,3.1802,3.1885,3.1917,3.1851,3.185,3.1863,3.1951,3.1982,3.1991,3.2121,3.2019,3.2026,3.2031,3.2034,3.2341,3.2345,0,0,0,0,0,0,3.1639,3.1658,3.1836,3.1843,3.1717,3.1797,3.181,3.1854,3.1916,3.1923,3.1866,3.1862,3.197,3.1983,3.1995,3.2129,3.2027,3.2035,3.2039,3.2338,3.2342,3.2346,0,0,0,0,0,0,3.1634,3.1655,3.1831,3.175,3.1772,3.1805,3.1855,3.1858,3.1889,3.1927,3.1933,3.1891,3.1968,3.1985,3.208,3.2132,3.2038,3.2045,3.2334,3.2339,3.2344,3.2399,0,0,0,0,0,0,3.1627,3.1653,3.1698,3.1751,3.1776,3.1916,3.1858,3.1863,3.1902,3.1897,3.1953,3.1959,3.1967,3.2069,3.2088,3.2141,3.2051,3.2329,3.2336,3.2342,3.2392,3.2406,3.2417,0,0,0,0,0,3.1618,3.1709,3.17,3.1722,3.1833,3.1919,3.1933,3.1942,3.1907,3.195,3.1975,3.1957,3.2125,3.2079,3.21,3.2156,3.2326,3.2334,3.2342,3.2387,3.2403,3.2416,0,0,0,0,0,0,3.166,3.1716,3.1707,3.1818,3.1864,3.1914,3.197,3.1959,3.2015,3.2008,3.2016,3.2029,3.2126,3.2151,3.21,3.2268,3.222,3.2232,3.2247,3.2262,3.2274,3.2264,3.2057,0,0,0,0,0,3.1682,3.1749,3.1794,3.1887,3.1911,3.1937,3.1975,3.1977,3.2025,3.2044,3.2075,3.2122,3.2184,3.2225,3.2286,3.2397,3.2407,3.2446,3.2458,3.2468,3.2477,3.2534,3.2551,3.2373,3.2373,3.2373,0,0,3.1729,3.1768,3.1809,3.1897,3.1933,3.1999,3.1953,3.2027,3.2075,3.2055,3.2146,3.2171,3.2223,3.2326,3.2373,3.235,3.2529,3.2478,3.2486,3.249,3.2544,3.2561,3.2576,3.2378,3.2377,3.2377,0,0,3.1846,3.1884,3.1964,3.2001,3.2056,3.2072,3.2092,3.2143,3.2159,3.2251,3.2236,3.2294,3.2403,3.2439,3.2472,3.2602,3.2586,3.2622,3.2683,3.2739,3.2753,3.2765,3.2808,3.2823,3.2632,3.2633,3.2633,0,3.1896,3.1997,3.2007,3.208,3.2118,3.2104,3.2183,3.2218,3.229,3.2315,3.2289,3.2424,3.2458,3.2567,3.2599,3.2628,3.2647,3.2614,3.2751,3.2763,3.2775,3.2815,3.2831,3.2636,3.2636,3.2635,3.2635,0,3.2054,3.2124,3.2182,3.2251,3.2296,3.2372,3.2392,3.2436,3.2434,3.2453,3.2545,3.2586,3.2652,3.2679,3.2679,3.2788,3.2772,3.2749,3.27,3.2795,3.2833,3.2849,3.2641,3.264,3.2639,3.2638,0,0,3.2199,3.2272,3.2293,3.2322,3.2382,3.2435,3.2511,3.2576,3.2611,3.2662,3.2722,3.2815,3.2792,3.283,3.2834,3.2883,3.2978,3.2853,3.2854,3.2871,3.3096,3.311,3.3128,3.297,3.2973,3.2975,3.309,0,3.2318,3.245,3.246,3.2579,3.2642,3.2629,3.2693,3.2736,3.2755,3.281,3.2831,3.2895,3.2863,3.2885,3.2933,3.2956,3.3023,3.2949,3.3023,3.3025,3.3006,3.3149,3.3165,3.3272,3.3106,3.3108,3.311,0,3.2474,3.2528,3.2653,3.2701,3.2728,3.2786,3.2845,3.2899,3.2946,3.2956,3.2998,3.2994,3.3069,3.302,3.3122,3.3071,3.3102,3.3118,3.3123,3.3126,3.3071,3.3153,3.3306,3.3321,3.3134,3.3133,3.3131,0,3.2562,3.2667,3.2754,3.278,3.284,3.288,3.2907,3.2951,3.2988,3.304,3.3064,3.3125,3.3156,3.3202,3.3214,3.3178,3.3314,3.3267,3.3322,3.3321,3.3348,3.3345,3.3504,3.3375,3.3375,3.3375,3.3374,0,3.2692,3.2767,3.2793,3.2846,3.293,3.2941,3.3023,3.3047,3.3086,3.3142,3.3136,3.3188,3.3203,3.3258,3.3268,3.3348,3.3364,3.3372,3.3373,3.337,3.3368,3.3388,3.3379,3.3379,3.3378,3.3377,3.3376,0,3.2802,3.2823,3.2916,3.2965,3.2979,3.3038,3.3079,3.3129,3.3147,3.3218,3.3235,3.3264,3.3327,3.3345,3.3422,3.3429,3.3521,3.3518,3.3505,3.3504,3.3556,3.3549,3.3729,3.3752,3.3612,3.3613,3.3614,0,3.2881,3.2939,3.2994,3.3031,3.3059,3.3119,3.3157,3.3171,3.321,3.3267,3.331,3.3373,3.3424,3.3526,3.3552,3.361,3.3605,3.3665,3.3614,3.3608,3.3601,3.3596,3.36,3.3673,3.3674,3.3676,3.3677,0,3.3018,3.3025,3.3081,3.314,3.3186,3.3233,3.3278,3.3309,3.3328,3.3373,3.3438,3.3477,3.3555,3.3617,3.3675,3.3701,3.3691,3.3693,3.3708,3.3703,3.3692,3.3694,3.3527,3.3688,3.3687,3.3686,3.3685,3.3685,3.3113,3.3162,3.3207,3.3269,3.3304,3.3346,3.3394,3.3419,3.3474,3.3538,3.3543,3.3612,3.3656,3.3733,3.3762,3.3815,3.3798,3.382,3.3825,3.3829,3.3832,3.3687,3.3827,3.3827,3.3826,3.3826,3.3826,0,3.3245,3.3274,3.333,3.3393,3.3441,3.343,3.3479,3.3519,3.358,3.3623,3.3672,3.3746,3.3805,3.3837,3.3895,3.3931,3.3928,3.3946,3.3941,3.3946,3.3847,3.3826,3.3947,3.3947,3.3947,3.3947,3.3947,3.3947,3.3319,3.3401,3.3413,3.3511,3.3539,3.3608,3.3636,3.3674,3.3707,3.3789,3.3839,3.3859,3.3896,3.3957,3.401,3.4017,3.4037,3.4057,3.4061,3.3967,3.3954,3.3942,3.3922,3.4062,3.4062,3.4156,3.4157,3.4158]},{"header":{"parameterUnit":"m.s-1","parameterCategory":1,"la1":30.2991,"la2":30.254,"lo1":-89.0895,"lo2":-89.0444,"dy":0.0017,"dx":0.0017,"nx":28,"ny":28,"refTime":"2025-06-13T09:00:00:Z","depth":0,"parameterNumber":3,"parameterNumberName":"V-component_of_WINDS"},"data":[0,0,0,0,0,0,0,0,0,0,0,0,0,0,0,0,0,0,0,0,0,0,0,0,0,0,0,0,0,0,0,0,0,0,0,0,0,0,0,0,0,0,0,0,0,0,0,0,0,0,0,0,0,0,0,0,0,0,1.9432,1.9433,0,1.9483,1.9484,1.9484,1.9446,1.9444,1.9443,1.9441,1.9493,1.9496,1.9498,0,0,0,0,0,0,0,0,0,0,0,0,0,1.9301,1.9304,1.9432,1.9433,1.9434,1.9483,1.9484,1.9484,1.9446,1.9444,1.9442,1.944,1.9492,1.9495,1.9499,0,0,0,0,0,0,0,0,0,0,0,0,0,1.9355,1.9304,1.9432,1.9421,1.942,1.9483,1.9484,1.9485,1.9447,1.9444,1.9442,1.9439,1.9491,1.9495,1.9499,1.9576,0,0,1.9513,1.9514,0,0,0,0,0,0,0,0,1.9352,1.936,1.9422,1.9421,1.9421,1.9456,1.9456,1.9515,1.9447,1.9437,1.9441,1.9438,1.9482,1.9487,1.9502,1.9579,1.9581,1.9513,1.9516,1.9518,1.9519,0,0,0,0,0,0,0,1.9349,1.9358,1.9452,1.9423,1.9422,1.9412,1.9417,1.9467,1.9473,1.9437,1.9435,1.9441,1.9482,1.9498,1.9503,1.9582,1.9513,1.9517,1.9519,1.9521,1.9721,1.9724,0,0,0,0,0,0,1.9346,1.9355,1.9451,1.9454,1.938,1.9417,1.9422,1.9447,1.9472,1.9474,1.9443,1.9439,1.9492,1.9498,1.9505,1.9595,1.9517,1.9522,1.9524,1.9719,1.9722,1.9725,0,0,0,0,0,0,1.9344,1.9355,1.9449,1.9404,1.9415,1.9422,1.945,1.9449,1.9466,1.9477,1.9477,1.9459,1.949,1.9499,1.9558,1.9597,1.9524,1.9528,1.9716,1.972,1.9723,1.9778,0,0,0,0,0,0,1.934,1.9354,1.9384,1.9405,1.9418,1.9502,1.9452,1.9452,1.9473,1.9469,1.9492,1.9493,1.9489,1.9552,1.9563,1.9601,1.9531,1.9712,1.9717,1.9722,1.9773,1.9784,1.9793,0,0,0,0,0,1.9335,1.9398,1.9386,1.9398,1.9455,1.9504,1.9512,1.9505,1.9477,1.9506,1.9513,1.9492,1.9591,1.9558,1.957,1.9611,1.971,1.9716,1.9722,1.9769,1.9781,1.9792,0,0,0,0,0,0,1.9383,1.9401,1.9388,1.9459,1.948,1.9498,1.9535,1.952,1.955,1.9544,1.9535,1.954,1.9603,1.9613,1.9576,1.9686,1.9645,1.9654,1.9677,1.9689,1.9699,1.9695,1.9535,0,0,0,0,0,1.9401,1.944,1.9454,1.9515,1.9526,1.9529,1.955,1.9544,1.9565,1.9574,1.9586,1.9607,1.9643,1.9667,1.97,1.9774,1.9778,1.9807,1.9817,1.9825,1.9833,1.9871,1.9884,1.9745,1.9745,1.9745,0,0,1.944,1.9455,1.948,1.9525,1.9541,1.9581,1.9537,1.9582,1.9611,1.9581,1.9638,1.9647,1.967,1.9737,1.9767,1.9747,1.9872,1.9833,1.9839,1.9843,1.9879,1.9892,1.9904,1.9749,1.9748,1.9747,0,0,1.9532,1.9547,1.9599,1.9616,1.964,1.9641,1.9653,1.9673,1.9678,1.9734,1.9712,1.9746,1.9808,1.9826,1.9842,1.9938,1.992,1.9949,2.0001,2.0038,2.0049,2.0059,2.0092,2.0104,1.9957,1.9957,1.9957,0,1.9577,1.9637,1.9628,1.9674,1.9693,1.9668,1.972,1.9736,1.977,1.9784,1.9761,1.9837,1.9851,1.9921,1.9944,1.9959,1.9972,1.9947,2.0048,2.0058,2.0067,2.0098,2.0111,1.996,1.996,1.9959,1.9959,0,1.9691,1.9732,1.9771,1.9804,1.9828,1.9877,1.9875,1.99,1.9891,1.9894,1.9951,1.9967,2.0002,2.0018,2.001,2.0086,2.0073,2.0049,2.0009,2.0083,2.0113,2.0125,1.9965,1.9964,1.9963,1.9962,0,0,1.9815,1.9841,1.9855,1.9869,1.9893,1.9925,1.9971,2.0006,2.0027,2.0051,2.0089,2.0141,2.0119,2.0138,2.0131,2.0164,2.0237,2.0136,2.0136,2.0154,2.032,2.0338,2.0352,2.0225,2.0227,2.0229,2.0318,0,1.9907,1.9988,1.9981,2.0058,2.0095,2.007,2.0111,2.0129,2.0133,2.0165,2.0168,2.0205,2.0174,2.0185,2.0216,2.0221,2.027,2.0215,2.0259,2.0261,2.0254,2.0368,2.0387,2.047,2.033,2.0332,2.0333,0,2.0025,2.0052,2.0133,2.0149,2.0165,2.0202,2.0231,2.0262,2.0282,2.0282,2.0303,2.0289,2.0335,2.0294,2.0356,2.0319,2.0336,2.0341,2.0344,2.0348,2.0302,2.0374,2.0497,2.051,2.0351,2.035,2.0349,0,2.0106,2.0163,2.0218,2.0231,2.0252,2.0278,2.0288,2.0305,2.0326,2.0352,2.0365,2.0396,2.0413,2.0437,2.0432,2.0402,2.0495,2.0453,2.0496,2.0496,2.0517,2.0516,2.0644,2.0529,2.0529,2.0528,2.0528,0,2.021,2.026,2.0255,2.0289,2.0344,2.0334,2.0389,2.0395,2.0411,2.0445,2.0425,2.0457,2.0449,2.0481,2.0477,2.0529,2.0537,2.0537,2.0536,2.0539,2.0539,2.0551,2.0545,2.0532,2.0531,2.053,2.053,0,2.031,2.0309,2.0367,2.0382,2.0386,2.0426,2.0438,2.0469,2.0471,2.0514,2.0524,2.0526,2.0562,2.0559,2.06,2.0597,2.0661,2.0653,2.0654,2.0652,2.0695,2.0691,2.0835,2.0853,2.0727,2.0728,2.0729,0,2.0376,2.0414,2.0432,2.0453,2.0465,2.05,2.052,2.0511,2.0533,2.0558,2.0586,2.062,2.0647,2.0706,2.0711,2.0741,2.0733,2.0782,2.0738,2.074,2.0733,2.0731,2.0734,2.0791,2.0792,2.0793,2.0794,0,2.0493,2.049,2.052,2.055,2.0575,2.0598,2.0619,2.0637,2.0631,2.0656,2.0693,2.0714,2.0755,2.0788,2.0817,2.0827,2.0809,2.0808,2.0819,2.0823,2.0822,2.0822,2.0678,2.0805,2.0804,2.0803,2.0802,2.0802,2.0578,2.061,2.0627,2.0661,2.0675,2.0695,2.0725,2.0729,2.076,2.0792,2.0785,2.0826,2.0843,2.088,2.0892,2.0923,2.0906,2.0922,2.0926,2.0931,2.0935,2.0817,2.0928,2.0928,2.0928,2.0927,2.0927,0,2.0693,2.0702,2.0734,2.0763,2.0789,2.077,2.0792,2.0815,2.0851,2.0869,2.0895,2.0936,2.0969,2.0975,2.1006,2.1029,2.1022,2.1038,2.1036,2.1038,2.095,2.0936,2.1043,2.1043,2.1043,2.1043,2.1043,2.1043,2.0756,2.0808,2.0807,2.0866,2.0875,2.0915,2.0929,2.0946,2.096,2.1007,2.1033,2.1037,2.105,2.1081,2.1109,2.111,2.1122,2.1141,2.1139,2.1056,2.1044,2.1033,2.1021,2.1144,2.1144,2.1225,2.1225,2.1226]}]]